Location: Lake Lucerne
(45.5315°N, 88.8489°W)
Time: 01:45:42
(UTC-05:00)

Tiangong 2 - Visible Passes

Search period start: 25 May 2017 00:00
Search period end: 04 June 2017 00:00
Orbit: 380 x 389 km, 42.8° (Epoch: 24 May)

Date Brightness Start Highest point End Pass type
(mag) Time Alt. Az. Time Alt. Az. Time Alt. Az.
25 May 2.0 21:19:18 10° SW 21:22:08 30° SSE 21:24:58 10° E visible
25 May 2.0 22:55:30 10° WSW 22:57:41 36° SW 22:57:41 36° SW visible
26 May 1.3 21:55:56 10° WSW 21:59:01 47° S 22:00:58 19° ESE visible
26 May 3.5 23:32:31 10° W 23:33:11 15° WSW 23:33:11 15° WSW visible
27 May 1.2 22:32:52 10° W 22:35:58 49° S 22:36:17 47° SSE visible
28 May 1.3 21:33:14 10° WSW 21:36:21 51° S 21:39:16 11° ESE visible
28 May 2.8 23:09:56 10° W 23:11:28 22° WSW 23:11:28 22° WSW visible
29 May 1.5 22:10:13 10° W 22:13:15 42° S 22:14:22 29° SE visible
30 May 1.4 21:10:32 10° W 21:13:38 49° S 21:16:44 10° ESE visible
30 May 2.7 22:47:24 10° WSW 22:49:27 23° SW 22:49:27 23° SW visible
31 May 2.0 21:47:33 10° W 21:50:29 33° SSW 21:52:17 18° SE visible
01 Jun 3.0 22:25:01 10° WSW 22:27:08 17° SSW 22:27:19 16° SSW visible
02 Jun 2.6 21:24:58 10° WSW 21:27:36 24° SSW 21:30:09 11° SE visible
03 Jun 3.6 22:03:24 10° SW 22:04:08 11° SSW 22:04:52 10° SSW visible
